| time (UTC) | temp F | wind direction | speed MPH | gust MPH | rain 1hr in | rain 24hr in | rain mn in | humidity % | barometer mb |
| 20260509003016 | 59 | 274 | 10.0 | 16.0 | 0.00 | 0.66 | 0.04 | 96 | 1003.6 |
| 20260509002115 | 59 | 297 | 10.0 | 19.0 | 0.00 | 0.66 | 0.04 | 96 | 1003.8 |
| 20260509001110 | 59 | 306 | 12.0 | 18.0 | 0.00 | 0.66 | 0.04 | 97 | 1003.8 |
| 20260509000131 | 59 | 313 | 14.0 | 21.0 | 0.00 | 0.66 | 0.04 | 98 | 1004.0 |
| 20260508235104 | 59 | 312 | 13.0 | 18.0 | 0.00 | 0.66 | 0.04 | 99 | 1004.2 |
| 20260508234120 | 59 | 313 | 13.0 | 20.0 | 0.00 | 0.66 | 0.04 | 99 | 1004.3 |
| 20260508233056 | 59 | 313 | 13.0 | 19.0 | 0.00 | 0.66 | 0.04 | 99 | 1004.3 |
| 20260508232115 | 58 | 311 | 11.0 | 18.0 | 0.01 | 0.66 | 0.04 | 99 | 1004.2 |
| 20260508231049 | 58 | 306 | 12.0 | 17.0 | 0.01 | 0.66 | 0.04 | 98 | 1004.3 |
| 20260508230046 | 58 | 315 | 12.0 | 17.0 | 0.01 | 0.66 | 0.04 | 97 | 1004.2 |
| 20260508225042 | 58 | 315 | 13.0 | 18.0 | 0.02 | 0.66 | 0.04 | 95 | 1004.3 |
| 20260508224041 | 58 | 321 | 16.0 | 24.0 | 0.02 | 0.66 | 0.04 | 94 | 1004.1 |
| 20260508223037 | 59 | 317 | 18.0 | 34.0 | 0.02 | 0.66 | 0.04 | 95 | 1003.9 |
| 20260508222031 | 58 | 318 | 17.0 | 24.0 | 0.01 | 0.65 | 0.02 | 95 | 1003.9 |
| 20260508221030 | 58 | 315 | 13.0 | 21.0 | 0.01 | 0.65 | 0.02 | 93 | 1003.9 |
| 20260508220026 | 58 | 299 | 16.0 | 23.0 | 0.01 | 0.65 | 0.02 | 91 | 1003.8 |
| 20260508215021 | 58 | 312 | 16.0 | 23.0 | 0.00 | 0.64 | 0.01 | 90 | 1003.7 |
| 20260508214018 | 59 | 315 | 17.0 | 22.0 | 0.00 | 0.64 | 0.01 | 91 | 1003.7 |
| 20260508213114 | 58 | 322 | 16.0 | 22.0 | 0.00 | 0.64 | 0.01 | 90 | 1003.7 |
| 20260508212111 | 58 | 315 | 19.0 | 27.0 | 0.00 | 0.64 | 0.01 | 87 | 1003.7 |
| 20260508211109 | 59 | 323 | 16.0 | 23.0 | 0.00 | 0.64 | 0.01 | 84 | 1003.7 |
| 20260508210104 | 59 | 337 | 19.0 | 25.0 | 0.00 | 0.64 | 0.01 | 85 | 1003.6 |
| 20260508205100 | 59 | 340 | 15.0 | 24.0 | 0.00 | 0.64 | 0.01 | 88 | 1003.5 |
| 20260508204058 | 58 | 343 | 15.0 | 20.0 | 0.00 | 0.64 | 0.01 | 92 | 1003.6 |
| 20260508203053 | 58 | 341 | 17.0 | 21.0 | 0.00 | 0.64 | 0.01 | 95 | 1003.7 |
| 20260508202050 | 58 | 321 | 14.0 | 20.0 | 0.00 | 0.64 | 0.01 | 97 | 1003.6 |
| 20260508201049 | 58 | 337 | 13.0 | 20.0 | 0.00 | 0.64 | 0.01 | 99 | 1003.5 |
| 20260508200045 | 58 | 323 | 13.0 | 18.0 | 0.00 | 0.64 | 0.01 | 99 | 1003.4 |
| 20260508195039 | 58 | 309 | 16.0 | 21.0 | 0.00 | 0.64 | 0.01 | 99 | 1003.4 |
| 20260508194036 | 58 | 345 | 14.0 | 19.0 | 0.00 | 0.64 | 0.01 | 99 | 1003.2 |
| 20260508193033 | 58 | 357 | 12.0 | 17.0 | 0.00 | 0.64 | 0.01 | 99 | 1003.3 |
| 20260508192052 | 57 | 354 | 9.0 | 14.0 | 0.00 | 0.64 | 0.01 | 99 | 1003.4 |
| 20260508191027 | 56 | 347 | 7.0 | 11.0 | 0.00 | 0.64 | 0.01 | 99 | 1003.5 |
| 20260508190022 | 56 | 0 | 7.0 | 12.0 | 0.01 | 0.64 | 0.01 | 99 | 1003.4 |
| 20260508185020 | 56 | 8 | 8.0 | 11.0 | 0.01 | 0.64 | 0.01 | 99 | 1003.4 |
| 20260508184038 | 56 | 357 | 7.0 | 10.0 | 0.01 | 0.64 | 0.01 | 99 | 1003.5 |
| 20260508183115 | 56 | 10 | 9.0 | 15.0 | 0.01 | 0.64 | 0.01 | 99 | 1003.3 |
| 20260508182111 | 57 | 345 | 13.0 | 17.0 | 0.01 | 0.64 | 0.01 | 99 | 1003.2 |
| 20260508181105 | 58 | 303 | 12.0 | 19.0 | 0.01 | 0.64 | 0.01 | 99 | 1003.2 |
| 20260508175058 | 58 | 330 | 12.0 | 20.0 | 0.00 | 0.63 | 0.00 | 99 | 1003.1 |
| 20260508174057 | 58 | 320 | 14.0 | 20.0 | 0.00 | 0.63 | 0.00 | 99 | 1002.9 |
| 20260508173051 | 59 | 319 | 18.0 | 25.0 | 0.00 | 0.63 | 0.00 | 99 | 1003.1 |
| 20260508172049 | 59 | 314 | 19.0 | 26.0 | 0.00 | 0.63 | 0.00 | 99 | 1003.0 |
| 20260508171044 | 59 | 351 | 16.0 | 21.0 | 0.00 | 0.63 | 0.00 | 99 | 1002.7 |
| 20260508170040 | 59 | 332 | 15.0 | 25.0 | 0.00 | 0.63 | 0.00 | 99 | 1002.8 |
| 20260508165038 | 59 | 288 | 17.0 | 24.0 | 0.00 | 0.63 | 0.00 | 99 | 1002.9 |
| 20260508164033 | 59 | 330 | 17.0 | 22.0 | 0.00 | 0.63 | 0.00 | 99 | 1002.9 |
| 20260508163029 | 59 | 351 | 17.0 | 21.0 | 0.00 | 0.63 | 0.00 | 99 | 1002.8 |
| 20260508162047 | 59 | 323 | 12.0 | 19.0 | 0.00 | 0.63 | 0.00 | 99 | 1002.9 |
| 20260508161103 | 59 | 332 | 13.0 | 17.0 | 0.00 | 0.63 | 0.00 | 99 | 1003.0 |
| 20260508160021 | 59 | 322 | 11.0 | 15.0 | 0.00 | 0.63 | 0.00 | 99 | 1003.1 |
| 20260508155016 | 58 | 339 | 9.0 | 14.0 | 0.00 | 0.63 | 0.00 | 99 | 1003.3 |
| 20260508154133 | 58 | 339 | 9.0 | 13.0 | 0.00 | 0.63 | 0.00 | 99 | 1003.3 |
| 20260508153109 | 58 | 356 | 8.0 | 12.0 | 0.00 | 0.63 | 0.00 | 99 | 1003.5 |
| 20260508152106 | 58 | 342 | 7.0 | 11.0 | 0.00 | 0.63 | 0.00 | 99 | 1003.6 |
| 20260508151101 | 58 | 322 | 2.0 | 11.0 | 0.00 | 0.63 | 0.00 | 99 | 1003.7 |
| 20260508150100 | 58 | 335 | 2.0 | 11.0 | 0.00 | 0.63 | 0.00 | 99 | 1003.6 |
| 20260508145054 | 59 | 270 | 1.0 | 10.0 | 0.00 | 0.63 | 0.00 | 99 | 1003.5 |
| 20260508144116 | 59 | 311 | 1.0 | 8.0 | 0.00 | 0.63 | 0.00 | 99 | 1003.5 |
| 20260508143048 | 59 | 301 | 1.0 | 8.0 | 0.00 | 0.63 | 0.00 | 99 | 1003.6 |
| 20260508142045 | 59 | 328 | 1.0 | 6.0 | 0.00 | 0.63 | 0.00 | 99 | 1003.6 |
| 20260508141042 | 59 | 293 | 0.0 | 8.0 | 0.00 | 0.63 | 0.00 | 99 | 1003.6 |
| 20260508140101 | 59 | 0.0 | 0.0 | 0.00 | 0.63 | 0.00 | 99 | 1003.7 | |
| 20260508135033 | 59 | 309 | 0.0 | 7.0 | 0.00 | 0.63 | 0.00 | 99 | 1003.8 |
| 20260508134032 | 59 | 321 | 1.0 | 8.0 | 0.00 | 0.63 | 0.00 | 99 | 1003.9 |
| 20260508133026 | 59 | 345 | 1.0 | 8.0 | 0.00 | 0.63 | 0.00 | 99 | 1004.0 |
| 20260508132023 | 59 | 332 | 0.0 | 7.0 | 0.00 | 0.63 | 0.00 | 99 | 1004.0 |
| 20260508131020 | 59 | 351 | 0.0 | 8.0 | 0.00 | 0.63 | 0.00 | 99 | 1004.2 |
| 20260508130036 | 59 | 329 | 2.0 | 8.0 | 0.00 | 0.63 | 0.00 | 99 | 1004.2 |
| 20260508125112 | 58 | 347 | 0.0 | 8.0 | 0.00 | 0.63 | 0.00 | 99 | 1004.3 |
| 20260508124129 | 58 | 342 | 2.0 | 8.0 | 0.01 | 0.63 | 0.00 | 99 | 1004.3 |
| 20260508123105 | 57 | 337 | 4.0 | 9.0 | 0.01 | 0.63 | 0.00 | 99 | 1004.4 |
| 20260508122102 | 58 | 339 | 4.0 | 9.0 | 0.01 | 0.63 | 0.00 | 99 | 1004.3 |
| 20260508121058 | 58 | 316 | 2.0 | 9.0 | 0.01 | 0.64 | 0.00 | 99 | 1004.4 |
| 20260508120055 | 58 | 310 | 1.0 | 8.0 | 0.01 | 0.64 | 0.00 | 99 | 1004.4 |
| 20260508115052 | 59 | 293 | 0.0 | 8.0 | 0.01 | 0.64 | 0.64 | 99 | 1004.4 |
| 20260508114048 | 59 | 331 | 1.0 | 8.0 | 0.00 | 0.64 | 0.63 | 99 | 1004.1 |
| 20260508113044 | 59 | 348 | 1.0 | 8.0 | 0.00 | 0.64 | 0.63 | 99 | 1004.2 |
| 20260508112041 | 59 | 330 | 2.0 | 8.0 | 0.00 | 0.65 | 0.63 | 99 | 1004.3 |
| 20260508111039 | 59 | 310 | 2.0 | 8.0 | 0.00 | 0.65 | 0.63 | 99 | 1004.3 |
| 20260508110034 | 59 | 352 | 1.0 | 8.0 | 0.00 | 0.65 | 0.63 | 99 | 1004.4 |
| 20260508105030 | 60 | 321 | 1.0 | 8.0 | 0.00 | 0.66 | 0.63 | 99 | 1004.3 |
| 20260508104030 | 60 | 315 | 0.0 | 8.0 | 0.00 | 0.66 | 0.63 | 99 | 1004.5 |
| 20260508103024 | 60 | 5 | 1.0 | 8.0 | 0.00 | 0.67 | 0.63 | 99 | 1004.6 |
| 20260508102020 | 60 | 339 | 2.0 | 10.0 | 0.01 | 0.67 | 0.63 | 99 | 1004.7 |
| 20260508101016 | 60 | 329 | 0.0 | 9.0 | 0.05 | 0.67 | 0.63 | 99 | 1004.8 |
| 20260508100114 | 60 | 343 | 1.0 | 10.0 | 0.13 | 0.67 | 0.63 | 99 | 1004.8 |
| 20260508095111 | 59 | 308 | 5.0 | 12.0 | 0.20 | 0.67 | 0.63 | 99 | 1004.8 |
| 20260508094106 | 57 | 344 | 4.0 | 13.0 | 0.28 | 0.67 | 0.63 | 99 | 1004.9 |
| 20260508093125 | 60 | 0.0 | 4.0 | 0.37 | 0.67 | 0.63 | 99 | 1004.8 | |
| 20260508092100 | 61 | 0 | 0.0 | 10.0 | 0.37 | 0.66 | 0.61 | 99 | 1003.9 |
| 20260508091058 | 61 | 293 | 0.0 | 8.0 | 0.33 | 0.63 | 0.58 | 99 | 1003.9 |
| 20260508090053 | 61 | 0 | 0.0 | 2.0 | 0.25 | 0.54 | 0.50 | 99 | 1004.2 |
| 20260508085109 | 61 | 315 | 0.0 | 5.0 | 0.18 | 0.47 | 0.43 | 99 | 1004.1 |
| 20260508084046 | 61 | 301 | 0.0 | 11.0 | 0.13 | 0.39 | 0.34 | 99 | 1004.3 |
| 20260508083044 | 61 | 345 | 1.0 | 11.0 | 0.09 | 0.31 | 0.26 | 99 | 1004.2 |
| 20260508082039 | 61 | 319 | 5.0 | 17.0 | 0.12 | 0.30 | 0.25 | 99 | 1004.3 |
| 20260508081035 | 61 | 351 | 5.0 | 18.0 | 0.12 | 0.30 | 0.25 | 99 | 1004.4 |
| 20260508080053 | 61 | 359 | 10.0 | 21.0 | 0.12 | 0.30 | 0.25 | 98 | 1004.1 |
| 20260508075028 | 61 | 335 | 19.0 | 34.0 | 0.12 | 0.30 | 0.25 | 97 | 1003.8 |
| 20260508074025 | 61 | 353 | 30.0 | 43.0 | 0.11 | 0.26 | 0.21 | 96 | 1003.4 |
| 20260508073022 | 61 | 345 | 34.0 | 53.0 | 0.08 | 0.21 | 0.17 | 95 | 1003.6 |
| 20260508072039 | 61 | 338 | 28.0 | 43.0 | 0.05 | 0.18 | 0.13 | 95 | 1003.8 |
| 20260508071136 | 61 | 2 | 34.0 | 58.0 | 0.05 | 0.18 | 0.13 | 95 | 1003.6 |
| 20260508070111 | 61 | 346 | 40.0 | 56.0 | 0.05 | 0.18 | 0.13 | 97 | 1003.8 |
| 20260508065130 | 61 | 2 | 33.0 | 49.0 | 0.05 | 0.18 | 0.13 | 97 | 1004.1 |
| 20260508064103 | 62 | 349 | 35.0 | 49.0 | 0.02 | 0.15 | 0.11 | 96 | 1004.9 |
| 20260508063100 | 62 | 348 | 33.0 | 53.0 | 0.00 | 0.13 | 0.08 | 96 | 1004.8 |
| 20260508062056 | 62 | 350 | 31.0 | 52.0 | 0.02 | 0.13 | 0.08 | 96 | 1004.3 |
| 20260508061116 | 62 | 346 | 37.0 | 59.0 | 0.02 | 0.13 | 0.08 | 96 | 1004.5 |
| 20260508060049 | 61 | 357 | 33.0 | 53.0 | 0.02 | 0.13 | 0.08 | 97 | 1004.5 |
| 20260508055046 | 61 | 352 | 33.0 | 45.0 | 0.04 | 0.13 | 0.08 | 97 | 1004.7 |
| 20260508054042 | 61 | 356 | 34.0 | 51.0 | 0.04 | 0.13 | 0.08 | 96 | 1004.8 |
| 20260508053039 | 61 | 356 | 34.0 | 55.0 | 0.05 | 0.13 | 0.08 | 96 | 1004.7 |
| 20260508052118 | 61 | 14 | 36.0 | 57.0 | 0.04 | 0.11 | 0.06 | 96 | 1004.8 |
| 20260508051032 | 61 | 0 | 35.0 | 46.0 | 0.04 | 0.11 | 0.06 | 96 | 1004.9 |
| 20260508050029 | 61 | 337 | 33.0 | 50.0 | 0.04 | 0.11 | 0.06 | 96 | 1004.9 |
| 20260508045025 | 61 | 2 | 31.0 | 46.0 | 0.04 | 0.09 | 0.05 | 96 | 1005.0 |
| 20260508044022 | 61 | 352 | 31.0 | 44.0 | 0.04 | 0.09 | 0.05 | 95 | 1005.0 |
| 20260508043018 | 61 | 356 | 30.0 | 49.0 | 0.02 | 0.08 | 0.04 | 94 | 1005.4 |
| 20260508042115 | 61 | 356 | 30.0 | 41.0 | 0.01 | 0.07 | 0.02 | 93 | 1005.8 |
| 20260508041113 | 61 | 13 | 30.0 | 43.0 | 0.01 | 0.07 | 0.02 | 92 | 1005.8 |
| 20260508040109 | 61 | 3 | 34.0 | 46.0 | 0.01 | 0.07 | 0.02 | 91 | 1005.8 |
| 20260508035104 | 61 | 339 | 33.0 | 49.0 | 0.00 | 0.06 | 0.01 | 90 | 1005.8 |
| 20260508034102 | 61 | 348 | 34.0 | 50.0 | 0.00 | 0.06 | 0.01 | 90 | 1006.0 |
| 20260508033057 | 61 | 351 | 33.0 | 46.0 | 0.00 | 0.06 | 0.01 | 88 | 1006.1 |
| 20260508032054 | 61 | 349 | 31.0 | 43.0 | 0.00 | 0.06 | 0.01 | 86 | 1006.3 |
| 20260508031050 | 62 | 353 | 30.0 | 49.0 | 0.00 | 0.06 | 0.01 | 85 | 1006.4 |
| 20260508030047 | 62 | 0 | 30.0 | 41.0 | 0.00 | 0.06 | 0.01 | 85 | 1006.4 |
| 20260508025044 | 62 | 347 | 29.0 | 43.0 | 0.00 | 0.06 | 0.01 | 86 | 1006.6 |
| 20260508024042 | 62 | 347 | 28.0 | 47.0 | 0.00 | 0.06 | 0.01 | 87 | 1006.8 |
| 20260508023036 | 62 | 0 | 27.0 | 41.0 | 0.00 | 0.06 | 0.01 | 87 | 1007.1 |
| 20260508022035 | 61 | 4 | 31.0 | 42.0 | 0.00 | 0.06 | 0.01 | 89 | 1007.4 |
| 20260508021029 | 61 | 350 | 30.0 | 46.0 | 0.00 | 0.06 | 0.01 | 90 | 1007.6 |
| 20260508020026 | 61 | 0 | 29.0 | 40.0 | 0.00 | 0.06 | 0.01 | 90 | 1007.5 |
| 20260508015022 | 61 | 350 | 29.0 | 43.0 | 0.00 | 0.06 | 0.01 | 88 | 1007.8 |
| 20260508014018 | 61 | 5 | 29.0 | 42.0 | 0.00 | 0.06 | 0.01 | 86 | 1008.1 |
| 20260508013115 | 61 | 348 | 30.0 | 44.0 | 0.00 | 0.06 | 0.01 | 85 | 1008.4 |
| 20260508012112 | 61 | 360 | 28.0 | 40.0 | 0.00 | 0.06 | 0.01 | 84 | 1008.8 |
| 20260508011110 | 62 | 351 | 29.0 | 43.0 | 0.00 | 0.06 | 0.01 | 83 | 1009.3 |
| 20260508010106 | 62 | 351 | 28.0 | 36.0 | 0.00 | 0.06 | 0.01 | 84 | 1009.6 |
| 20260508005103 | 62 | 352 | 28.0 | 40.0 | 0.00 | 0.06 | 0.01 | 84 | 1009.8 |
| 20260508004059 | 62 | 350 | 30.0 | 43.0 | 0.00 | 0.06 | 0.01 | 84 | 1010.0 |
| 20260508003137 | 62 | 12 | 26.0 | 39.0 | 0.00 | 0.06 | 0.01 | 83 | 1010.2 |